Regional Weather Roundup
Issued by NWS

Home | Current Version | Previous Version | Graphics & Text | Print | Product List | Glossary On
Versions: 1 2 3 4 5 6 7 8 9 10 11 12 13 14 15 16 17 18 19 20 21 22 23 24 25 26 27 28 29 30 31 32 33 34 35 36 37 38 39 40 41 42 43 44 45 46 47 48 49 50
000
ASUS43 KIND 251459
RWRIN

WEATHER ROUNDUP FOR INDIANA
NATIONAL WEATHER SERVICE INDIANAPOLIS IN
1100 AM EDT THU AUG 25 2016

NOTE: "FAIR" INDICATES FEW OR NO CLOUDS BELOW 12,000 FEET WITH NO
SIGNIFICANT WEATHER AND/OR OBSTRUCTIONS TO VISIBILITY.

* - STATION DOES NOT REPORT WEATHER SUCH AS PRECIPITATION OR FOG.

+ - STATION NOT QUALITY CONTROLLED BY THE NATIONAL WEATHER SERVICE.
    USE DATA WITH CAUTION...ESPECIALLY DEWPOINT AND RELATIVE
    HUMIDITY OBSERVATIONS.

INZ001>003-010>013-019-020-251600-
NORTHWEST INDIANA

CITY           SKY/WX    TMP DP  RH WIND       PRES   REMARKS
GARY /AIRPORT/ CLOUDY    75  72  88 W10       30.01R
KNOX *+        SUNNY     77  50  38 SW9       30.01S
MONTICELLO +   SUNNY     76  67  72 SW7       30.04S
VALPARAISO     CLOUDY    75  70  83 W12       30.02S

$$

LMZ046-743>745-251600-
SOUTHERN LAKE MICHIGAN

STATION/POSITION TIME  TEMP    WIND        PRES    WAVE
                       AIR SEA DIR/SP/G            HT
                 (UTC) (F)     (DEG/KT/KT) (MB)    (FT)
BURNS HARBOR     1415   74     240/ 10/ 17 1016.3R
MICHIGAN CITY    1400   73     190/ 12/ 14   N/A
5NW MICH CITY    1400   73 74  220/ 10/ 12   N/A     1

$$

INZ004-005-014>016-021>024-251600-
NORTH CENTRAL INDIANA

CITY           SKY/WX    TMP DP  RH WIND       PRES   REMARKS
GOSHEN         SUNNY     78  69  73 SW12      30.01S
SOUTH BEND     MOSUNNY   77  70  79 SW12      30.01R
WARSAW +       MOSUNNY   77  73  88 W6        30.03R

$$

INZ006>009-017-018-025>027-251600-
NORTHEAST INDIANA

CITY           SKY/WX    TMP DP  RH WIND       PRES   REMARKS
ANGOLA *+      SUNNY     79  72  78 SW9       30.02R
FORT WAYNE     NOT AVBL

$$

INZ028-029-035-036-043>045-051>053-251600-
WEST CENTRAL INDIANA

CITY           SKY/WX    TMP DP  RH WIND       PRES   REMARKS
CRAWFORDSVL +  SUNNY     79  72  80 W6        30.08R
LAFAYETTE      SUNNY     78  70  76 VRB6      30.04F
TERRE HAUTE    SUNNY     83  74  74 SW7       30.07R

$$

INZ030>032-037>040-046>048-054>057-064-065-251600-
CENTRAL INDIANA

CITY           SKY/WX    TMP DP  RH WIND       PRES   REMARKS
COLUMBUS       CLOUDY    82  77  83 W10       30.08S
INDIANAPOLIS   MOSUNNY   84  75  74 SW10      30.06R
-EAGLE CREEK   SUNNY     83  74  74 SW12      30.05S
MT COMFORT *+  MOSUNNY   81  73  78 SW9       30.07R
SHELBYVILLE    PTSUNNY   83  75  77 S13       30.07R

$$

INZ033-034-041-042-049-050-058-059-251600-
EAST CENTRAL INDIANA

CITY           SKY/WX    TMP DP  RH WIND       PRES   REMARKS
MUNCIE         SUNNY     82  74  76 S12       30.05R

$$

INZ060-061-067>069-081>083-085>088-251600-
SOUTHWEST INDIANA

CITY           SKY/WX    TMP DP  RH WIND       PRES   REMARKS
EVANSVILLE     SUNNY     84  75  74 SW9       30.10F
HUNTINGBURG *+ MOSUNNY   84  75  74 SW8       30.10S

$$

INZ062-063-066-070>080-084-089>092-251600-
SOUTH CENTRAL AND SOUTHEAST INDIANA

CITY           SKY/WX    TMP DP  RH WIND       PRES   REMARKS
BLOOMINGTON    MOSUNNY   82  74  76 SW7       30.09S
MADISON *+     CLOUDY    81  73  78 SW6       30.13R

$$





USA.gov is the U.S. government's official web portal to all federal, state and local government web resources and services.